MEXSAT 3

Last updated on Thu Nov 21 2024 00:02:42 GMT+0000 (Coordinated Universal Time)

1 39035U 12075B 24325.38816003 -.00000024 00000+0 00000+0 0 9995 2 39035 0.0180 297.0710 0002178 310.2721 197.5070 1.00272537 1299
UTC large
Height (km)
Speed (km/s)
/
Latitude / Longitude
Inclination (degrees)
Orbital Period (minutes)
Azimuth
Elevation
Range (km)
Doppler Factor

Next 0 passes for location: London (51.5072 / 0.1276)

Sorry there are no passes over London.